Location: Prairie State College
(41.5244°N, 87.6382°W)
Time: 18:49:10
(UTC-05:00)

ISS - All Passes

Search period start: 02 September 2014 00:00
Search period end: 12 September 2014 00:00
Orbit: 413 x 419 km, 51.6° (Epoch: 02 September)

Date Brightness Start Highest point End Pass type
(mag) Time Alt. Az. Time Alt. Az. Time Alt. Az.
02 Sep - 08:47:18 10° S 08:49:33 17° SE 08:51:49 10° E daylight
02 Sep - 10:22:43 10° WSW 10:26:00 57° NNW 10:29:17 10° NE daylight
02 Sep - 12:00:57 10° WNW 12:03:16 17° NNW 12:05:36 10° NNE daylight
02 Sep - 13:38:53 10° NNW 13:40:59 15° N 13:43:04 10° NE daylight
02 Sep - 15:15:16 10° NW 15:18:25 37° NNE 15:21:33 10° E daylight
02 Sep - 16:52:10 10° WNW 16:55:04 28° SW 16:57:58 10° SSE daylight
03 Sep - 09:34:06 10° SW 09:37:25 85° SE 09:40:46 10° NE daylight
03 Sep - 11:11:53 10° WNW 11:14:30 21° NNW 11:17:08 10° NE daylight
03 Sep - 12:50:13 10° NNW 12:52:10 14° N 12:54:06 10° NE daylight
03 Sep - 14:26:50 10° NW 14:29:44 27° NNE 14:32:37 10° E daylight
03 Sep - 16:03:22 10° WNW 16:06:37 50° SW 16:09:50 10° SE daylight
04 Sep - 08:45:41 10° SW 08:48:54 47° SE 08:52:07 10° ENE daylight
04 Sep - 10:22:50 10° W 10:25:45 27° NNW 10:28:40 10° NE daylight
04 Sep - 12:01:22 10° NW 12:03:19 15° N 12:05:16 10° NNE daylight
04 Sep - 13:38:22 10° NW 13:40:59 21° NNE 13:43:35 10° ENE daylight
04 Sep - 15:14:44 10° NW 15:18:04 89° SW 15:21:24 10° SE daylight
04 Sep - 16:53:54 10° WSW 16:54:18 10° SW 16:54:41 10° SW daylight
05 Sep - 07:57:33 10° SSW 08:00:24 27° SE 08:03:16 10° ENE daylight
05 Sep - 09:33:53 10° W 09:37:02 39° NNW 09:40:11 10° NE daylight
05 Sep - 11:12:21 10° NW 11:14:27 16° N 11:16:34 10° NNE daylight
05 Sep - 12:49:51 10° NNW 12:52:10 17° NNE 12:54:28 10° NE daylight
05 Sep - 14:26:10 10° NW 14:29:27 54° NNE 14:32:43 10° ESE daylight
05 Sep - 16:03:34 10° W 16:05:54 18° SW 16:08:14 10° S daylight
06 Sep - 07:09:52 10° S 07:11:57 16° SE 07:14:03 10° E daylight
06 Sep - 08:45:03 10° WSW 08:48:21 62° NNW 08:51:39 10° NE daylight
06 Sep - 10:23:13 10° WNW 10:25:35 18° NNW 10:27:58 10° NNE daylight
06 Sep - 12:01:14 10° NNW 12:03:18 15° N 12:05:21 10° NE daylight
06 Sep - 13:37:38 10° NW 13:40:45 35° NNE 13:43:51 10° E daylight
06 Sep - 15:14:27 10° WNW 15:17:26 31° SW 15:20:24 10° SSE daylight
07 Sep - 07:56:23 10° SW 07:59:42 78° SE 08:03:02 10° ENE daylight
07 Sep - 09:34:04 10° WNW 09:36:45 22° NNW 09:39:25 10° NE daylight
07 Sep - 11:12:27 10° NW 11:14:23 14° N 11:16:19 10° NE daylight
07 Sep - 12:49:07 10° NW 12:51:58 25° NNE 12:54:49 10° E daylight
07 Sep - 14:25:37 10° WNW 14:28:53 55° SW 14:32:08 10° SE daylight
08 Sep - 07:07:56 10° SSW 07:11:06 43° SE 07:14:17 10° ENE daylight
08 Sep - 08:44:58 10° W 08:47:55 29° NNW 08:50:53 10° NE daylight
08 Sep - 10:23:29 10° NW 10:25:27 15° N 10:27:25 10° NNE daylight
08 Sep - 12:00:34 10° NNW 12:03:07 20° NNE 12:05:40 10° ENE daylight
08 Sep - 13:36:54 10° NW 13:40:15 84° NNE 13:43:34 10° SE daylight
08 Sep - 15:15:25 10° WSW 15:16:30 11° SW 15:17:35 10° SSW daylight
09 Sep - 06:19:47 10° S 06:22:33 24° SE 06:25:19 10° ENE daylight
09 Sep - 07:55:57 10° WSW 07:59:08 42° NNW 08:02:19 10° NE daylight
09 Sep - 09:34:22 10° NW 09:36:31 16° N 09:38:40 10° NNE daylight
09 Sep - 11:11:58 10° NNW 11:14:13 17° NNE 11:16:28 10° NE daylight
09 Sep - 12:48:16 10° NW 12:51:32 50° NNE 12:54:46 10° ESE daylight
09 Sep - 14:25:32 10° W 14:28:01 20° SW 14:30:30 10° S daylight
10 Sep - 05:32:09 10° SSE 05:34:01 14° SE 05:35:54 10° E visible
10 Sep - 07:07:04 10° WSW 07:10:22 68° NNW 07:13:42 10° NE daylight
10 Sep - 08:45:09 10° WNW 08:47:34 18° NNW 08:50:00 10° NNE daylight
10 Sep - 10:23:14 10° NNW 10:25:16 15° N 10:27:17 10° NE daylight
10 Sep - 11:59:40 10° NW 12:02:44 33° NNE 12:05:47 10° E daylight
10 Sep - 13:36:24 10° WNW 13:39:27 34° SW 13:42:29 10° SSE daylight
11 Sep - 06:18:21 10° SW 06:21:39 70° SE 06:24:59 10° ENE daylight
11 Sep - 07:55:55 10° WNW 07:58:39 23° NNW 08:01:23 10° NE daylight
11 Sep - 09:34:21 10° NW 09:36:16 14° N 09:38:11 10° NE daylight
11 Sep - 11:11:04 10° NW 11:13:52 24° NNE 11:16:39 10° ENE daylight
11 Sep - 12:47:31 10° WNW 12:50:49 61° SW 12:54:05 10° SE daylight
